Hoquiam, WA
on Monday, January 28, 2013

Monday
Previous Day Next Day
Daily Summary
 ActualAverageRecord
Temperature
Mean Temperature °F 43°F  
Max Temperature 46°F 48°F 55°F (1998)
Min Temperature 42°F 38°F 17°F (1980)
Degree Days
Heating Degree Days 22 22  
Month to date heating degree days 627  
Cooling Degree Days 0 0  
Month to date cooling degree days 0  
Year to date cooling degree days 0  
Moisture
Dew Point 41°F   
Average Humidity 88    
Maximum Humidity 93    
Minimum Humidity 81    
Precipitation
Precipitation 0.64 in 0.30 in 2.28 in (1965)
Month to date precipitation 9.44  
Year to date precipitation 9.44  
Wind
Wind Speed 13 mph   
Max Wind Speed 22 mph   
Max Gust Speed 29 mph   
Visibility 8 miles   
Events Rain   

Key: T is trace of precipitation, MM is missing value
Source: NWS Daily Summary
Time(PST)TemperatureDew PointHumidity Pressure Visibility Wind DirectionWind SpeedGust SpeedPrecipitationEvents Conditions
12:53 AM 42.1°F 39.0°F 89% 30.07 in 10.0 miles West 6.9 mph - N/A   Scattered Clouds
1:53 AM 42.1°F 39.0°F 89% 30.09 in 10.0 miles NNW 5.8 mph - N/A   Mostly Cloudy
2:53 AM 42.1°F 37.9°F 85% 30.09 in 8.0 miles WNW 8.1 mph - 0.02 in Rain Light Rain
3:06 AM 42.8°F 37.4°F 81% 30.08 in 10.0 miles West 11.5 mph 16.1 mph 0.00 in Rain Light Rain
3:53 AM 43.0°F 39.0°F 86% 30.09 in 10.0 miles West 10.4 mph - 0.01 in   Mostly Cloudy
4:15 AM 42.8°F 37.4°F 81% 30.09 in 5.0 miles West 11.5 mph 24.2 mph 0.03 in Rain Light Rain
4:34 AM 42.8°F 39.2°F 87% 30.09 in 10.0 miles West 11.5 mph - 0.03 in Rain Light Rain
4:53 AM 43.0°F 37.9°F 82% 30.11 in 8.0 miles West 13.8 mph 18.4 mph 0.04 in Rain Light Rain
5:53 AM 42.1°F 39.0°F 89% 30.11 in 10.0 miles West 8.1 mph - 0.01 in Rain Light Rain
6:02 AM 42.8°F 39.2°F 87% 30.10 in 10.0 miles West 9.2 mph - 0.00 in Rain Light Rain
6:15 AM 42.8°F 39.2°F 87% 30.10 in 7.0 miles WNW 9.2 mph 18.4 mph 0.02 in Rain Light Rain
6:53 AM 42.1°F 39.0°F 89% 30.12 in 10.0 miles West 10.4 mph - 0.03 in Rain Light Rain
7:53 AM 42.1°F 39.0°F 89% 30.12 in 8.0 miles West 5.8 mph - 0.02 in Rain Light Rain
8:53 AM 42.1°F 39.9°F 92% 30.12 in 10.0 miles SSE 3.5 mph - 0.05 in Rain Light Rain
9:30 AM 44.6°F 41.0°F 87% 30.11 in 9.0 miles West 11.5 mph - 0.01 in Rain Light Rain
9:53 AM 44.1°F 41.0°F 89% 30.12 in 10.0 miles WSW 10.4 mph - 0.01 in   Overcast
10:25 AM 44.6°F 39.2°F 81% 30.11 in 4.0 miles West 12.7 mph - 0.02 in Rain Light Rain
10:43 AM 44.6°F 41.0°F 87% 30.11 in 10.0 miles West 8.1 mph - 0.03 in Rain Light Rain
10:51 AM 44.6°F 42.8°F 93% 30.10 in 9.0 miles WSW 6.9 mph - 0.03 in Rain Light Rain
10:53 AM 44.1°F 42.1°F 93% 30.12 in 8.0 miles WSW 6.9 mph - 0.03 in Rain Light Rain
11:34 AM 44.6°F 41.0°F 87% 30.11 in 10.0 miles West 17.3 mph - 0.04 in Rain Light Rain
11:53 AM 45.0°F 42.1°F 90% 30.12 in 7.0 miles West 15.0 mph - 0.06 in Rain Light Rain
12:49 PM 44.6°F 42.8°F 93% 30.10 in 6.0 miles West 20.7 mph 25.3 mph 0.03 in Rain Light Rain
12:53 PM 45.0°F 41.0°F 86% 30.11 in 6.0 miles West 20.7 mph 27.6 mph 0.03 in Rain Light Rain
1:09 PM 44.6°F 41.0°F 87% 30.09 in 10.0 miles West 19.6 mph - 0.01 in Rain Light Rain
1:25 PM 44.6°F 42.8°F 93% 30.09 in 8.0 miles West 17.3 mph - 0.02 in Rain Light Rain
1:53 PM 45.0°F 42.1°F 90% 30.11 in 5.0 miles West 17.3 mph - 0.04 in Rain Light Rain
2:27 PM 44.6°F 42.8°F 93% 30.08 in 9.0 miles WSW 18.4 mph - 0.03 in Rain Light Rain
2:39 PM 44.6°F 42.8°F 93% 30.09 in 9.0 miles West 20.7 mph - 0.03 in Rain Light Rain
2:53 PM 45.0°F 41.0°F 86% 30.11 in 8.0 miles West 20.7 mph 28.8 mph 0.05 in Rain Light Rain
3:53 PM 45.0°F 41.0°F 86% 30.11 in 7.0 miles West 18.4 mph 25.3 mph 0.04 in Rain Light Rain
4:15 PM 44.6°F 41.0°F 87% 30.09 in 10.0 miles West 21.9 mph 27.6 mph 0.02 in Rain Light Rain
4:29 PM 44.6°F 41.0°F 87% 30.10 in 6.0 miles West 18.4 mph 26.5 mph 0.03 in Rain Light Rain
4:37 PM 44.6°F 39.2°F 81% 30.09 in 10.0 miles West 19.6 mph 26.5 mph 0.03 in Rain Light Rain
4:51 PM 44.6°F 41.0°F 87% 30.10 in 5.0 miles West 19.6 mph 24.2 mph 0.04 in Rain Light Rain
4:53 PM 44.1°F 41.0°F 89% 30.11 in 5.0 miles West 20.7 mph - 0.04 in Rain Light Rain
5:31 PM 44.6°F 41.0°F 87% 30.09 in 10.0 miles West 18.4 mph - 0.03 in Rain Light Rain
5:38 PM 44.6°F 41.0°F 87% 30.09 in 10.0 miles West 17.3 mph - 0.04 in Rain Light Rain
5:53 PM 44.1°F 41.0°F 89% 30.12 in 7.0 miles West 17.3 mph 27.6 mph 0.04 in Rain Light Rain
6:37 PM 44.6°F 41.0°F 87% 30.11 in 6.0 miles West 20.7 mph 27.6 mph 0.04 in Rain Light Rain
6:45 PM 44.6°F 41.0°F 87% 30.11 in 10.0 miles West 19.6 mph - 0.04 in Rain Light Rain
6:53 PM 44.1°F 41.0°F 89% 30.12 in 10.0 miles West 19.6 mph 26.5 mph 0.04 in Rain Light Rain
7:38 PM 44.6°F 41.0°F 87% 30.10 in 5.0 miles West 18.4 mph 26.5 mph 0.00 in Rain Light Rain
7:53 PM 44.1°F 41.0°F 89% 30.12 in 10.0 miles West 19.6 mph - 0.01 in Rain Light Rain
8:53 PM 45.0°F 42.1°F 90% 30.13 in 10.0 miles West 15.0 mph - 0.01 in Rain Light Rain
9:10 PM 44.6°F 42.8°F 93% 30.12 in 3.0 miles West 16.1 mph 24.2 mph 0.02 in Rain Light Rain
9:36 PM 44.6°F 42.8°F 93% 30.12 in 4.0 miles West 16.1 mph - 0.03 in Rain Light Rain
9:53 PM 45.0°F 43.0°F 93% 30.14 in 6.0 miles West 17.3 mph 24.2 mph 0.04 in Rain Light Rain
10:15 PM 44.6°F 42.8°F 93% 30.13 in 8.0 miles West 15.0 mph - 0.00 in   Overcast
10:36 PM 44.6°F 42.8°F 93% 30.14 in 4.0 miles West 18.4 mph - 0.00 in Rain Light Rain
10:53 PM 45.0°F 43.0°F 93% 30.15 in 9.0 miles West 20.7 mph 26.5 mph 0.00 in   Overcast
11:53 PM 46.0°F 43.0°F 89% 30.17 in 10.0 miles West 20.7 mph - 0.02 in   Overcast
Moon Phase
Jan. 28 Feb. 03 Feb. 10 Feb. 17 Feb. 25
Sunrise:07:44 AM (PST) Moon Rise:07:25 PM (PST)1/28
Sunset:05:13 PM (PST) Moon Set:08:03 AM (PST)1/28

Copyright © 2014 The Weather Underground, Inc.